DateTimeUTC,F1_A11,F1_S11,BsB_S11,BsG_S11,BsR_S11,BbsB_S11,BbsG_S11,BbsR_S11,BaB_A11,BaG_A11,BaR_A11,Tu_S11,T_S11,Uu_S11,U_S11,P_S11,T1_A11
2021-08-04T02:00:00Z,00000200,20000000,,,,,,,0000.09,0000.39,0000.36,17.9,25.2,01.7,01.1,0671.2,30.9
2021-08-04T02:01:00Z,00000200,20000000,,,,,,,0000.26,0000.20,0000.54,17.9,25.2,01.7,01.1,0671.2,31.0
2021-08-04T02:02:00Z,00000200,20000000,,,,,,,-000.34,-000.73,-000.74,17.9,25.2,01.7,01.1,0671.2,31.0
2021-08-04T02:03:00Z,00000200,60000000,,,,,,,-000.62,-000.12,-000.69,18.0,25.2,01.6,01.0,0671.2,31.0
2021-08-04T02:04:00Z,00000200,41000000,-000.04,0000.35,-000.14,-000.08,0000.28,-000.24,0000.18,0000.18,0000.13,18.4,25.1,01.3,00.9,0672.1,31.0
2021-08-04T02:05:00Z,00000200,01000000,0000.47,0000.17,0000.08,0000.59,0000.21,-000.05,-000.57,-000.72,-000.44,18.4,25.1,01.2,00.8,0672.1,31.0
2021-08-04T02:06:00Z,00000200,01000000,0000.11,-000.17,0000.13,0000.39,0000.39,0000.00,0000.65,0000.84,0000.74,18.4,25.1,01.4,00.9,0672.0,31.0
2021-08-04T02:07:00Z,00000200,01000000,0000.61,0000.10,-000.06,0000.68,0000.04,-000.05,0000.08,0000.06,0000.08,18.4,25.0,01.5,01.0,0672.0,30.9
2021-08-04T02:08:00Z,00000200,01000000,0000.48,0000.28,0000.22,-000.09,0000.08,0000.18,0000.80,0001.13,0001.39,18.3,25.0,01.9,01.3,0672.0,31.0
2021-08-04T02:09:00Z,00000200,00000000,0000.57,0000.20,0000.10,-000.21,0000.13,-000.02,0000.35,0000.15,-000.09,18.3,25.0,02.2,01.5,0672.0,30.9
2021-08-04T02:10:00Z,00000200,00000000,0000.68,-000.03,0000.13,0000.11,0000.03,-000.15,0000.81,0000.30,0000.36,18.3,24.9,02.4,01.6,0672.0,30.9
2021-08-04T02:11:00Z,00000200,00000000,0000.50,0000.40,-000.03,0000.14,-000.07,0000.05,-000.37,-000.08,-000.05,18.2,24.9,02.6,01.7,0672.0,30.9
2021-08-04T02:12:00Z,00000200,00000000,0000.39,-000.03,0000.24,0000.42,0000.11,0000.14,0000.01,0000.01,-000.00,18.2,24.9,02.5,01.6,0672.0,30.9
2021-08-04T02:13:00Z,00000200,00000000,0000.09,0000.13,0000.08,-000.04,-000.15,-000.25,-000.51,-000.55,-000.41,18.2,24.9,02.3,01.6,0671.9,30.9
2021-08-04T02:14:00Z,00000200,00000000,-000.12,0000.08,0000.53,0000.20,-000.01,-000.01,0001.37,0001.56,0001.51,18.2,24.9,02.2,01.4,0671.9,30.9
2021-08-04T02:15:00Z,00000200,00000000,0000.64,0000.22,0000.19,0000.24,0000.09,-000.27,0000.57,0000.51,0000.41,18.2,24.9,02.6,01.7,0671.9,30.9
2021-08-04T02:16:00Z,00000200,00000000,0000.40,0000.00,0000.08,0000.07,0000.13,0000.10,-000.08,0000.06,0000.01,18.2,24.9,02.6,01.7,0671.9,30.9
2021-08-04T02:17:00Z,00000200,00000000,-000.03,0000.27,0000.24,0000.01,0000.02,-000.15,0000.69,0000.47,0000.87,18.3,24.9,02.8,01.9,0671.9,31.0
2021-08-04T02:18:00Z,00000200,00000000,0000.02,0000.25,-000.31,0000.17,0000.23,-000.23,-000.07,0000.21,-000.39,18.5,25.0,03.2,02.1,0671.8,31.0
2021-08-04T02:19:00Z,00000200,00000000,0000.23,0000.44,0000.12,0000.09,0000.05,-000.30,0000.55,0000.35,0000.39,18.6,25.0,03.2,02.2,0671.9,31.0
2021-08-04T02:20:00Z,00000200,00000000,0000.49,0000.29,0000.07,-000.17,0000.27,0000.14,-001.87,-001.80,-001.91,18.6,25.0,02.5,01.7,0671.9,31.0
2021-08-04T02:21:00Z,00000200,01000000,0000.16,-000.10,-000.20,-000.01,-000.08,-000.25,-000.16,-000.74,-000.35,18.6,25.1,01.9,01.3,0671.9,31.0
2021-08-04T02:22:00Z,00000200,01000000,0000.09,0000.21,0000.19,0000.19,0000.12,-000.06,-000.73,-000.39,-000.79,18.5,25.0,01.9,01.3,0671.9,31.0
2021-08-04T02:23:00Z,00000200,01000000,0000.25,0000.24,0000.16,0000.44,0000.22,-000.12,-000.15,-000.06,0000.08,18.5,25.0,01.7,01.1,0671.9,31.0
2021-08-04T02:24:00Z,00000200,01000000,0000.34,0000.39,0000.23,0000.45,0000.04,-000.07,0000.20,0000.37,0000.50,18.4,25.0,01.8,01.2,0671.9,30.9
2021-08-04T02:25:00Z,00000200,01000000,-000.33,0000.51,0000.17,0000.26,0000.11,-000.30,-000.09,-000.18,-000.23,18.4,25.0,01.9,01.2,0671.9,30.9
2021-08-04T02:26:00Z,00000200,01000000,-000.09,0000.09,0000.33,0000.21,0000.20,0000.03,-000.10,-000.42,-000.46,18.4,24.9,01.8,01.2,0671.9,30.9
2021-08-04T02:27:00Z,00000200,01000000,0000.56,0000.14,-000.24,0000.56,0000.13,-000.15,-000.22,-000.13,-000.08,18.3,24.9,01.7,01.2,0671.9,30.9
2021-08-04T02:28:00Z,00000200,01000000,0000.82,-000.10,0000.03,-000.25,0000.30,-000.04,0000.21,0000.17,0000.10,18.3,24.9,01.7,01.1,0671.9,30.9
2021-08-04T02:29:00Z,00000200,01010000,0000.22,-000.17,0000.00,0000.40,-000.11,-000.10,0000.41,0000.50,0000.74,18.3,24.9,01.8,01.2,0671.8,30.9
2021-08-04T02:30:00Z,00000200,01000000,-000.03,0000.28,-000.25,0000.34,0000.17,-000.21,0000.98,0000.87,0000.61,18.3,24.9,02.0,01.3,0671.8,30.9
2021-08-04T02:31:00Z,00000200,00000000,-000.27,0000.09,0000.28,0000.47,-000.01,-000.01,0000.24,0000.67,0000.51,18.3,24.9,02.3,01.5,0671.8,30.9
2021-08-04T02:32:00Z,00000200,00000000,-000.11,0000.04,0000.30,-000.10,0000.02,0000.22,0000.91,0000.54,0000.74,18.4,24.9,02.5,01.7,0671.7,31.0
2021-08-04T02:33:00Z,00000200,00000000,-000.27,0000.01,-000.06,0000.38,0000.19,-000.19,-000.05,0000.44,0000.21,18.4,25.0,02.7,01.8,0671.7,31.0
2021-08-04T02:34:00Z,00000200,00000000,-000.21,0000.27,-000.07,0000.12,-000.14,-000.33,0000.01,0000.02,0000.03,18.5,24.9,02.9,02.0,0671.7,31.0
2021-08-04T02:35:00Z,00000200,00000000,-000.23,0000.06,0000.21,-000.20,0000.02,-000.07,-000.82,-001.04,-001.11,18.4,24.9,02.7,01.8,0671.7,31.0
2021-08-04T02:36:00Z,00000200,00000000,0000.57,0000.25,-000.14,0000.27,0000.04,0000.01,-000.85,-001.09,-000.99,18.4,24.9,02.4,01.6,0671.7,30.9
2021-08-04T02:37:00Z,00000200,01000000,0000.35,0000.22,0000.32,0000.20,-000.09,-000.01,-000.78,-000.74,-000.47,18.4,24.9,02.0,01.3,0671.7,30.9
2021-08-04T02:38:00Z,00000200,01000000,0000.07,-000.08,0000.06,-000.46,-000.09,0000.02,-000.38,-000.45,-000.59,18.3,24.9,01.7,01.1,0671.7,30.9
2021-08-04T02:39:00Z,00000200,01000000,-000.09,0000.08,-000.21,0000.17,-000.16,-000.18,0000.75,0000.79,0000.97,18.3,24.9,01.7,01.1,0671.7,30.9
2021-08-04T02:40:00Z,00000200,00000000,0000.35,0000.14,0000.11,-000.10,-000.03,-000.13,0001.10,0001.05,0000.78,18.3,24.8,02.0,01.3,0671.6,30.9
2021-08-04T02:41:00Z,00000200,00000000,0000.32,0000.41,0000.09,-000.03,0000.17,-000.25,0000.66,0000.57,0000.83,18.2,24.8,02.5,01.7,0671.6,30.9
2021-08-04T02:42:00Z,00000200,00000000,-000.06,-000.04,-000.06,-000.22,0000.07,-000.08,-000.27,-000.19,-000.01,18.2,24.8,02.6,01.8,0671.6,30.9
2021-08-04T02:43:00Z,00000200,00000000,0000.20,0000.02,0000.03,-000.05,-000.24,-000.01,-000.85,-000.53,-000.72,18.2,24.8,02.6,01.7,0671.6,30.9
2021-08-04T02:44:00Z,00000200,00000000,-000.09,0000.16,0000.25,-000.03,0000.05,0000.31,-000.06,-000.21,-000.13,18.1,24.8,02.2,01.5,0671.6,30.9
2021-08-04T02:45:00Z,00000200,00000000,0000.39,-000.04,0000.22,-000.06,-000.17,0000.02,0001.87,0001.97,0001.86,18.1,24.8,02.4,01.6,0671.5,30.9
2021-08-04T02:46:00Z,00000200,00000000,-000.07,-000.11,0000.22,-000.05,0000.04,-000.12,-000.89,-000.99,-001.10,18.2,24.8,02.5,01.7,0671.5,30.9
2021-08-04T02:47:00Z,00000200,00000000,-000.16,0000.10,0000.12,0000.18,0000.19,-000.02,0000.30,0000.50,0000.62,18.3,24.8,02.4,01.6,0671.5,31.0
2021-08-04T02:48:00Z,00000200,00000000,0000.35,0000.16,0000.10,0000.42,0000.00,-000.07,0000.25,0000.09,-000.03,18.4,24.9,02.4,01.6,0671.5,31.0
2021-08-04T02:49:00Z,00000200,00000000,-000.04,0000.23,0000.03,-000.27,0000.01,-000.19,-000.24,-000.57,-000.49,18.5,24.9,02.4,01.6,0671.5,31.0
2021-08-04T02:50:00Z,00000200,00000000,0000.49,0000.27,0000.35,0000.92,-000.03,0000.02,-000.34,-000.17,-000.21,18.5,24.9,02.1,01.4,0671.5,31.0
2021-08-04T02:51:00Z,00000200,00000000,0000.38,0000.61,0000.18,0000.25,0000.19,-000.01,0002.89,0003.21,0003.12,18.5,24.9,02.1,01.4,0671.5,31.0
2021-08-04T02:52:00Z,00000200,00000000,-000.23,0000.29,0000.12,-000.17,0000.25,-000.01,-002.94,-003.19,-002.88,18.4,24.9,02.9,02.0,0671.5,30.9
2021-08-04T02:53:00Z,00000200,00000000,0000.73,-000.17,0000.08,-000.02,0000.01,-000.08,-000.19,-000.42,-000.29,18.4,24.9,01.9,01.3,0671.5,31.0
2021-08-04T02:54:00Z,00000200,01000000,0000.22,0000.10,0000.29,-000.04,-000.05,0000.14,-000.42,-000.41,-000.89,18.3,24.8,01.7,01.2,0671.5,30.9
2021-08-04T02:55:00Z,00000200,01000000,0000.22,0000.13,0000.14,0000.09,0000.23,-000.02,-000.03,0000.34,0000.08,18.3,24.8,01.8,01.2,0671.5,30.9
2021-08-04T02:56:00Z,00000200,01000000,0001.05,0000.19,0000.28,0000.19,0000.11,-000.10,0000.20,-000.05,0000.54,18.2,24.8,01.6,01.1,0671.5,30.9
2021-08-04T02:57:00Z,00000200,41000000,,,,,,,0000.39,0000.37,0000.27,18.3,24.8,01.2,00.8,0671.5,30.9
2021-08-04T02:58:00Z,00000200,61000000,,,,,,,-000.36,-000.23,-000.36,17.9,24.9,01.7,01.1,0670.4,30.9
2021-08-04T02:59:00Z,00000200,20000000,,,,,,,0000.73,0000.82,0000.87,17.8,25.0,01.7,01.1,0670.4,30.9
